Date String (YYYY-MM-DD hh:mm:ss) UTC,Instrument flags,absolute air pressure of the measurement (hPa),sample flow rate (lpm),inlet stack bypass flow (lpm),air temperature of the measurement (°C),ambient temperature measured by the external sensor (°C),aerosol sample conditioner tube jacket temperature (°C),OPC LED temperature (°C),internal box temperature (°C),relative humidity of the measurement (%),span deviation,mass concentration of particles derived from Lorenz-Mie calculation of OPC scattering (μg/m³),mass concentration of particles derived from Lorenz-Mie calculation of OPC scattering (μg/m³),mass concentration of particles derived from Lorenz-Mie calculation of OPC scattering (μg/m³)
DateTimeUTC,F1_M11,P_M11,Q1_M11,Q2_M11,T1_M11,T2_M11,T3_M11,T4_M11,T5_M11,U1_M11,ZSPAN_M11,X0_M11,X2_M11,X1_M11
2023-08-05 06:00:00,SystemResetWarning,0834.4,5.01,000.00,029.3,028.2,000.0,037.8,031.1,22.9,0000.0,0010.34,0004.45,0003.89
2023-08-05 06:01:00,SystemResetWarning,0834.4,5.00,000.00,029.4,028.3,000.0,037.8,031.1,22.7,0000.0,0010.50,0004.44,0003.83
2023-08-05 06:02:00,SystemResetWarning,0834.4,5.00,000.00,029.4,028.0,000.0,037.8,031.1,23.3,0000.0,0011.26,0004.47,0003.78
2023-08-05 06:03:00,SystemResetWarning,0834.4,5.00,000.00,029.4,026.2,000.0,037.7,030.8,24.2,0000.0,0012.55,0004.45,0003.73
2023-08-05 06:04:00,SystemResetWarning,0834.4,5.00,000.00,029.3,025.2,000.0,037.6,030.6,24.6,0000.0,0013.12,0004.37,0003.64
2023-08-05 06:05:00,SystemResetWarning,0834.4,5.01,000.00,029.2,025.3,000.0,037.6,030.5,25.0,0000.0,0013.37,0004.33,0003.57
2023-08-05 06:06:00,SystemResetWarning,0834.4,5.01,000.00,029.1,025.6,000.0,037.6,030.4,24.6,0000.0,0013.37,0004.25,0003.49
2023-08-05 06:07:00,SystemResetWarning,0834.4,5.00,000.00,029.1,026.1,000.0,037.7,030.5,23.8,0000.0,0013.31,0004.14,0003.41
2023-08-05 06:08:00,SystemResetWarning,0834.4,4.99,000.00,029.1,026.5,000.0,037.7,030.6,23.6,0000.0,0012.59,0004.06,0003.34
2023-08-05 06:09:00,SystemResetWarning,0834.4,5.01,000.00,029.1,026.8,000.0,037.7,030.7,23.3,0000.0,0012.79,0004.00,0003.28
2023-08-05 06:10:00,SystemResetWarning,0834.4,5.00,000.00,029.1,027.1,000.0,037.7,030.7,23.7,0000.0,0013.35,0003.95,0003.25
2023-08-05 06:11:00,SystemResetWarning,0834.4,5.00,000.00,029.1,027.3,000.0,037.7,030.8,23.7,0000.0,0013.37,0003.95,0003.23
2023-08-05 06:12:00,SystemResetWarning,0834.4,5.00,000.00,029.2,027.5,000.0,037.7,030.8,23.6,0000.0,0013.05,0003.90,0003.23
2023-08-05 06:13:00,SystemResetWarning,0834.4,5.00,000.00,029.2,027.7,000.0,037.7,030.9,23.7,0000.0,0011.44,0003.84,0003.22
2023-08-05 06:14:00,SystemResetWarning,0834.4,5.00,000.00,029.2,027.8,000.0,037.8,030.9,24.0,0000.0,0010.56,0003.79,0003.21
2023-08-05 06:15:00,SystemResetWarning,0834.4,5.01,000.00,029.3,027.9,000.0,037.8,031.0,23.8,0000.0,0010.18,0003.80,0003.22
2023-08-05 06:16:00,SystemResetWarning,0834.5,5.00,000.00,029.3,028.0,000.0,037.8,031.0,23.9,0000.0,0010.00,0003.80,0003.22
2023-08-05 06:17:00,SystemResetWarning,0834.4,5.00,000.00,029.3,028.1,000.0,037.8,031.0,23.6,0000.0,0009.83,0003.78,0003.23
2023-08-05 06:18:00,SystemResetWarning,0834.4,4.99,000.00,029.4,028.2,000.0,037.8,031.1,23.3,0000.0,0009.81,0003.78,0003.23
2023-08-05 06:19:00,SystemResetWarning,0834.5,5.00,000.00,029.4,028.3,000.0,037.9,031.1,22.9,0000.0,0010.07,0003.78,0003.22
2023-08-05 06:20:00,SystemResetWarning,0834.5,5.00,000.00,029.4,028.3,000.0,037.9,031.1,23.0,0000.0,0009.76,0003.76,0003.22
2023-08-05 06:21:00,SystemResetWarning,0834.4,5.00,000.00,029.4,027.5,000.0,037.8,031.0,23.0,0000.0,0009.42,0003.77,0003.21
2023-08-05 06:22:00,SystemResetWarning,0834.3,5.00,000.00,029.4,025.7,000.0,037.7,030.8,23.0,0000.0,0009.52,0003.80,0003.21
2023-08-05 06:23:00,SystemResetWarning,0834.4,5.01,000.00,029.3,025.2,000.0,037.6,030.5,23.2,0000.0,0009.71,0003.80,0003.21
2023-08-05 06:24:00,SystemResetWarning,0834.4,5.01,000.00,029.2,025.4,000.0,037.6,030.3,23.7,0000.0,0010.27,0003.79,0003.22
2023-08-05 06:25:00,SystemResetWarning,0834.3,5.00,000.00,029.1,025.7,000.0,037.7,030.4,23.9,0000.0,0010.32,0003.84,0003.25
2023-08-05 06:26:00,SystemResetWarning,0834.4,5.00,000.00,029.1,026.2,000.0,037.7,030.5,24.1,0000.0,0009.92,0003.85,0003.28
2023-08-05 06:27:00,SystemResetWarning,0834.4,5.00,000.00,029.1,026.5,000.0,037.7,030.6,24.5,0000.0,0009.86,0003.89,0003.31
2023-08-05 06:28:00,SystemResetWarning,0834.4,5.00,000.00,029.1,026.9,000.0,037.7,030.7,24.5,0000.0,0010.04,0003.92,0003.32
2023-08-05 06:29:00,SystemResetWarning,0834.5,4.99,000.00,029.1,027.1,000.0,037.7,030.8,24.9,0000.0,0010.01,0003.91,0003.33
2023-08-05 06:30:00,SystemResetWarning,0834.4,5.00,000.00,029.1,027.3,000.0,037.7,030.8,24.5,0000.0,0009.64,0003.89,0003.34
2023-08-05 06:31:00,SystemResetWarning,0834.4,5.00,000.00,029.2,027.5,000.0,037.7,030.8,24.3,0000.0,0009.42,0003.89,0003.35
2023-08-05 06:32:00,SystemResetWarning,0834.4,4.99,000.00,029.2,027.7,000.0,037.8,030.9,24.1,0000.0,0009.15,0003.89,0003.35
2023-08-05 06:33:00,SystemResetWarning,0834.3,5.00,000.00,029.2,027.8,000.0,037.8,030.9,24.0,0000.0,0009.48,0003.82,0003.35
2023-08-05 06:34:00,SystemResetWarning,0834.4,5.00,000.00,029.3,027.9,000.0,037.8,031.0,23.8,0000.0,0009.50,0003.80,0003.35
2023-08-05 06:35:00,SystemResetWarning,0834.4,5.00,000.00,029.3,028.0,000.0,037.8,031.0,23.8,0000.0,0008.75,0003.78,0003.34
2023-08-05 06:36:00,SystemResetWarning,0834.4,5.01,000.00,029.3,028.1,000.0,037.8,031.0,23.7,0000.0,0008.25,0003.72,0003.31
2023-08-05 06:37:00,SystemResetWarning,0834.5,5.00,000.00,029.4,028.2,000.0,037.9,031.1,23.9,0000.0,0008.08,0003.70,0003.28
2023-08-05 06:38:00,SystemResetWarning,0834.5,4.98,000.00,029.4,028.2,000.0,037.9,031.1,23.1,0000.0,0008.22,0003.68,0003.25
2023-08-05 06:39:00,SystemResetWarning,0834.5,5.00,000.00,029.4,028.3,000.0,037.9,031.1,23.0,0000.0,0008.41,0003.66,0003.22
2023-08-05 06:40:00,SystemResetWarning,0834.5,5.00,000.00,029.5,028.3,000.0,037.9,031.2,22.9,0000.0,0008.09,0003.67,0003.21
2023-08-05 06:41:00,SystemResetWarning,0834.5,5.00,000.00,029.5,028.4,000.0,038.0,031.2,23.0,0000.0,0008.11,0003.67,0003.20
2023-08-05 06:42:00,SystemResetWarning,0834.5,5.00,000.00,029.5,028.1,000.0,037.9,031.2,23.1,0000.0,0008.11,0003.68,0003.20
2023-08-05 06:43:00,SystemResetWarning,0834.5,5.00,000.00,029.5,026.2,000.0,037.8,030.9,23.0,0000.0,0007.97,0003.68,0003.19
2023-08-05 06:44:00,SystemResetWarning,0834.5,5.01,000.00,029.4,025.2,000.0,037.7,030.7,23.2,0000.0,0007.34,0003.70,0003.19
2023-08-05 06:45:00,SystemResetWarning,0834.5,5.01,000.00,029.3,025.3,000.0,037.7,030.4,23.4,0000.0,0007.17,0003.71,0003.19
2023-08-05 06:46:00,SystemResetWarning,0834.5,4.98,000.00,029.2,025.6,000.0,037.7,030.4,23.6,0000.0,0007.15,0003.73,0003.20
2023-08-05 06:47:00,SystemResetWarning,0834.4,5.00,000.00,029.2,026.0,000.0,037.8,030.5,23.7,0000.0,0007.27,0003.77,0003.21
2023-08-05 06:48:00,SystemResetWarning,0834.5,5.01,000.00,029.2,026.4,000.0,037.8,030.6,23.9,0000.0,0007.31,0003.80,0003.22
2023-08-05 06:49:00,SystemResetWarning,0834.4,5.00,000.00,029.2,026.7,000.0,037.8,030.7,23.9,0000.0,0007.19,0003.80,0003.24
2023-08-05 06:50:00,SystemResetWarning,0834.5,4.99,000.00,029.2,027.0,000.0,037.8,030.7,24.2,0000.0,0006.65,0003.82,0003.27
2023-08-05 06:51:00,SystemResetWarning,0834.5,5.00,000.00,029.2,027.3,000.0,037.8,030.8,24.1,0000.0,0006.63,0003.83,0003.29
2023-08-05 06:52:00,SystemResetWarning,0834.5,5.00,000.00,029.2,027.5,000.0,037.8,030.9,24.3,0000.0,0006.83,0003.90,0003.32
2023-08-05 06:53:00,SystemResetWarning,0834.5,4.99,000.00,029.2,027.6,000.0,037.8,030.9,24.2,0000.0,0007.43,0003.91,0003.34
2023-08-05 06:54:00,SystemResetWarning,0834.5,4.99,000.00,029.3,027.8,000.0,037.8,030.9,24.0,0000.0,0007.51,0003.95,0003.36
2023-08-05 06:55:00,SystemResetWarning,0834.4,5.00,000.00,029.3,027.9,000.0,037.8,030.9,24.1,0000.0,0007.44,0003.95,0003.37
2023-08-05 06:56:00,SystemResetWarning,0834.4,5.01,000.00,029.3,028.0,000.0,037.8,031.0,24.2,0000.0,0007.52,0004.00,0003.38
2023-08-05 06:57:00,SystemResetWarning,0834.4,5.01,000.00,029.3,028.1,000.0,037.9,031.0,24.1,0000.0,0007.78,0004.01,0003.39
2023-08-05 06:58:00,SystemResetWarning,0834.4,4.99,000.00,029.4,028.1,000.0,037.9,031.1,24.2,0000.0,0008.53,0004.01,0003.39
2023-08-05 06:59:00,SystemResetWarning,0834.4,4.99,000.00,029.4,028.2,000.0,037.9,031.1,24.2,0000.0,0009.25,0004.00,0003.39
